Meteo orario Roma

Oggi, 19 Giugno, Sabato

Tempo Temperatura Precipitazioni Vento Pressione Umidità
00:00 +21°C° 0 mm 0 m/s 760 mm Hg 67%
01:00 +22°C° 0 mm 1 m/s 760 mm Hg 65%
02:00 +22°C° 0 mm 1 m/s 760 mm Hg 66%
03:00 +21°C° 0 mm 1 m/s 760 mm Hg 66%
04:00 +20°C° 0 mm 2 m/s 760 mm Hg 67%
05:00 +23°C° 0 mm 1 m/s 760 mm Hg 62%
06:00 +24°C° 0 mm 1 m/s 760 mm Hg 58%
07:00 +25°C° 0 mm 1 m/s 760 mm Hg 53%
08:00 +28°C° 0 mm 1 m/s 760 mm Hg 45%
09:00 +30°C° 0 mm 1 m/s 760 mm Hg 38%
10:00 +32°C° 0 mm 1 m/s 759 mm Hg 30%
11:00 +34°C° 0 mm 2 m/s 759 mm Hg 28%
12:00 +35°C° 0 mm 2 m/s 759 mm Hg 27%
13:00 +36°C° 0 mm 3 m/s 759 mm Hg 25%
14:00 +35°C° 0 mm 3 m/s 759 mm Hg 27%
15:00 +35°C° 0 mm 3 m/s 758 mm Hg 29%
16:00 +34°C° 0 mm 3 m/s 758 mm Hg 31%
17:00 +33°C° 0 mm 3 m/s 758 mm Hg 36%
18:00 +30°C° 0 mm 2 m/s 758 mm Hg 41%
19:00 +28°C° 0 mm 2 m/s 758 mm Hg 46%
20:00 +27°C° 0 mm 1 m/s 759 mm Hg 49%
21:00 +26°C° 0 mm 1 m/s 759 mm Hg 51%
22:00 +25°C° 0 mm 1 m/s 759 mm Hg 54%
23:00 +24°C° 0 mm 1 m/s 759 mm Hg 55%

Domani, 20 Giugno, Domenica

Tempo Temperatura Precipitazioni Vento Pressione Umidità
00:00 +24°C° 0 mm 1 m/s 758 mm Hg 55%
01:00 +24°C° 0 mm 1 m/s 758 mm Hg 55%
02:00 +23°C° 0 mm 1 m/s 758 mm Hg 54%
03:00 +23°C° 0 mm 1 m/s 758 mm Hg 54%
04:00 +23°C° 0 mm 2 m/s 758 mm Hg 54%
05:00 +25°C° 0 mm 1 m/s 758 mm Hg 50%
06:00 +27°C° 0 mm 1 m/s 758 mm Hg 46%
07:00 +28°C° 0 mm 1 m/s 758 mm Hg 42%
08:00 +31°C° 0 mm 2 m/s 758 mm Hg 38%
09:00 +34°C° 0 mm 2 m/s 757 mm Hg 33%
10:00 +36°C° 0 mm 2 m/s 757 mm Hg 28%
11:00 +37°C° 0 mm 3 m/s 757 mm Hg 29%
12:00 +37°C° 0 mm 4 m/s 757 mm Hg 30%
13:00 +37°C° 0 mm 5 m/s 756 mm Hg 30%
14:00 +36°C° 0 mm 4 m/s 756 mm Hg 32%
15:00 +35°C° 0 mm 3 m/s 756 mm Hg 35%
16:00 +34°C° 0 mm 3 m/s 756 mm Hg 37%
17:00 +32°C° 0.1 mm 2 m/s 756 mm Hg 42%
18:00 +30°C° 0.1 mm 2 m/s 756 mm Hg 47%
19:00 +29°C° 0.1 mm 1 m/s 757 mm Hg 53%
20:00 +28°C° 0 mm 1 m/s 757 mm Hg 56%
21:00 +27°C° 0 mm 2 m/s 757 mm Hg 59%
22:00 +26°C° 0 mm 2 m/s 757 mm Hg 62%
23:00 +26°C° 0.1 mm 2 m/s 756 mm Hg 63%

Dopodomani, 21 Giugno, Lunedi

Tempo Temperatura Precipitazioni Vento Pressione Umidità
00:00 +25°C° 0.1 mm 3 m/s 755 mm Hg 63%
01:00 +25°C° 0.1 mm 3 m/s 754 mm Hg 64%
02:00 +25°C° 0 mm 3 m/s 754 mm Hg 63%
03:00 +25°C° 0 mm 2 m/s 754 mm Hg 63%
04:00 +25°C° 0 mm 2 m/s 754 mm Hg 63%
05:00 +25°C° 0 mm 2 m/s 755 mm Hg 64%
06:00 +26°C° 0 mm 2 m/s 756 mm Hg 65%
07:00 +26°C° 0 mm 2 m/s 756 mm Hg 65%
08:00 +29°C° 0 mm 2 m/s 756 mm Hg 55%
09:00 +32°C° 0 mm 1 m/s 755 mm Hg 44%
10:00 +35°C° 0 mm 1 m/s 755 mm Hg 33%
11:00 +36°C° 0 mm 2 m/s 755 mm Hg 36%
12:00 +35°C° 0 mm 3 m/s 755 mm Hg 38%
13:00 +35°C° 0 mm 4 m/s 755 mm Hg 40%
14:00 +34°C° 0 mm 4 m/s 755 mm Hg 40%
15:00 +34°C° 0 mm 4 m/s 755 mm Hg 41%
16:00 +34°C° 0 mm 4 m/s 755 mm Hg 41%
17:00 +33°C° 0 mm 3 m/s 755 mm Hg 44%
18:00 +31°C° 0 mm 3 m/s 755 mm Hg 48%
19:00 +30°C° 0 mm 3 m/s 755 mm Hg 51%
20:00 +29°C° 0 mm 3 m/s 755 mm Hg 59%
21:00 +27°C° 0 mm 2 m/s 755 mm Hg 67%
22:00 +25°C° 0 mm 2 m/s 756 mm Hg 75%
23:00 +25°C° 0 mm 2 m/s 756 mm Hg 76%

22 Giugno, Martedi

Tempo Temperatura Precipitazioni Vento Pressione Umidità
00:00 +24°C° 0 mm 1 m/s 756 mm Hg 77%
01:00 +24°C° 0 mm 1 m/s 756 mm Hg 79%
02:00 +24°C° 0 mm 1 m/s 755 mm Hg 78%
03:00 +24°C° 0 mm 2 m/s 755 mm Hg 77%
04:00 +23°C° 0 mm 2 m/s 755 mm Hg 76%
05:00 +25°C° 0 mm 2 m/s 755 mm Hg 69%
06:00 +26°C° 0 mm 1 m/s 756 mm Hg 62%
07:00 +28°C° 0 mm 1 m/s 756 mm Hg 56%
08:00 +30°C° 0 mm 2 m/s 756 mm Hg 49%
09:00 +32°C° 0 mm 2 m/s 756 mm Hg 43%
10:00 +35°C° 0 mm 2 m/s 755 mm Hg 37%
11:00 +36°C° 0 mm 3 m/s 755 mm Hg 36%
12:00 +37°C° 0 mm 4 m/s 755 mm Hg 35%
13:00 +38°C° 0 mm 4 m/s 755 mm Hg 33%
14:00 +37°C° 0 mm 4 m/s 755 mm Hg 35%
15:00 +36°C° 0 mm 4 m/s 756 mm Hg 37%
16:00 +35°C° 0 mm 3 m/s 756 mm Hg 39%
17:00 +34°C° 0 mm 3 m/s 756 mm Hg 42%
18:00 +32°C° 0 mm 2 m/s 755 mm Hg 45%
19:00 +31°C° 0 mm 1 m/s 755 mm Hg 48%
20:00 +29°C° 0 mm 1 m/s 756 mm Hg 54%
21:00 +28°C° 0 mm 1 m/s 756 mm Hg 60%
22:00 +26°C° 0 mm 1 m/s 757 mm Hg 67%
23:00 +25°C° 0 mm 1 m/s 757 mm Hg 67%

23 Giugno, Mercoledi

Tempo Temperatura Precipitazioni Vento Pressione Umidità
00:00 +25°C° 0 mm 1 m/s 757 mm Hg 68%
01:00 +25°C° 0 mm 1 m/s 757 mm Hg 69%
02:00 +24°C° 0 mm 1 m/s 756 mm Hg 66%
03:00 +24°C° 0 mm 1 m/s 756 mm Hg 64%
04:00 +24°C° 0 mm 1 m/s 756 mm Hg 62%
05:00 +26°C° 0 mm 1 m/s 756 mm Hg 57%
06:00 +27°C° 0 mm 1 m/s 756 mm Hg 51%
07:00 +29°C° 0 mm 1 m/s 756 mm Hg 46%
08:00 +31°C° 0 mm 2 m/s 757 mm Hg 42%
09:00 +33°C° 0 mm 3 m/s 757 mm Hg 38%
10:00 +35°C° 0 mm 4 m/s 757 mm Hg 35%
11:00 +36°C° 0 mm 4 m/s 757 mm Hg 33%
12:00 +37°C° 0 mm 4 m/s 757 mm Hg 31%
13:00 +39°C° 0 mm 5 m/s 757 mm Hg 30%
14:00 +37°C° 0 mm 4 m/s 757 mm Hg 32%
15:00 +36°C° 0 mm 4 m/s 757 mm Hg 35%
16:00 +35°C° 0 mm 4 m/s 758 mm Hg 38%
17:00 +34°C° 0 mm 3 m/s 758 mm Hg 42%
18:00 +32°C° 0 mm 2 m/s 758 mm Hg 47%
19:00 +30°C° 0 mm 2 m/s 758 mm Hg 51%
20:00 +29°C° 0 mm 1 m/s 758 mm Hg 57%
21:00 +27°C° 0 mm 1 m/s 759 mm Hg 63%
22:00 +26°C° 0 mm 1 m/s 759 mm Hg 69%
23:00 +25°C° 0 mm 1 m/s 759 mm Hg 69%

24 Giugno, Giovedi

Tempo Temperatura Precipitazioni Vento Pressione Umidità
00:00 +25°C° 0 mm 1 m/s 759 mm Hg 70%
01:00 +25°C° 0 mm 1 m/s 759 mm Hg 70%
02:00 +24°C° 0 mm 1 m/s 759 mm Hg 70%
03:00 +24°C° 0 mm 1 m/s 759 mm Hg 70%
04:00 +24°C° 0 mm 1 m/s 759 mm Hg 69%
05:00 +25°C° 0 mm 1 m/s 759 mm Hg 63%
06:00 +27°C° 0 mm 1 m/s 760 mm Hg 57%
07:00 +29°C° 0 mm 1 m/s 760 mm Hg 50%
08:00 +31°C° 0 mm 1 m/s 760 mm Hg 44%
09:00 +34°C° 0 mm 2 m/s 759 mm Hg 38%
10:00 +36°C° 0 mm 3 m/s 759 mm Hg 32%
11:00 +37°C° 0 mm 3 m/s 759 mm Hg 30%
12:00 +38°C° 0 mm 2 m/s 759 mm Hg 27%
13:00 +40°C° 0 mm 2 m/s 759 mm Hg 24%
14:00 +39°C° 0 mm 3 m/s 759 mm Hg 27%
15:00 +38°C° 0 mm 3 m/s 759 mm Hg 29%
16:00 +37°C° 0 mm 4 m/s 759 mm Hg 32%
17:00 +36°C° 0 mm 3 m/s 759 mm Hg 36%
18:00 +34°C° 0 mm 2 m/s 759 mm Hg 39%
19:00 +32°C° 0 mm 1 m/s 758 mm Hg 43%
20:00 +30°C° 0 mm 1 m/s 759 mm Hg 47%
21:00 +29°C° 0 mm 1 m/s 759 mm Hg 52%
22:00 +28°C° 0 mm 2 m/s 759 mm Hg 56%
23:00 +27°C° 0 mm 2 m/s 759 mm Hg 58%
Mostrare altro

Abbiamo bisogno del tuo consenso

Meteoprog e i nostri fornitori di servizi possono memorizzare e accedere a dati personali come cookie, identificatori di dispositivi o altre tecnologie simili sul tuo dispositivo e possono elaborare tali dati per personalizzare i contenuti e gli annunci, nonché fornire funzionalità dei social media e analizzarne il traffico.

  • Archiviare e/o accedere alle informazioni sul tuo dispositivo

    Cookie, identificatori di dispositivi o altre informazioni possono essere memorizzati o resi accessibili sul tuo dispositivo per le finalità sopra indicate.

  • Annunci e contenuti personalizzati, misurazione di annunci e contenuti, approfondimenti sul pubblico e sviluppo di prodotti

    Gli annunci e i contenuti possono essere personalizzati in base a un profilo. È possibile aggiungere più dati per personalizzare meglio annunci e contenuti. È possibile misurare il rendimento degli annunci e dei contenuti. È possibile ricavare informazioni sul pubblico che ha visto gli annunci e i contenuti. Tali dati possono essere utilizzati per sviluppare o migliorare l'esperienza, i sistemi e il software dell'utente.

Cliccando su “Accetto”, acconsenti all'uso di cookie, identificatori di dispositivo, web beacon o altre tecnologie simili. Puoi modificare le impostazioni nel browser del tuo dispositivo.

Per determinati scopi, è possibile fare affidamento su interessi legali, piuttosto che sul consenso. Puoi approfondire questo argomento consultando la nostra Informativa sulla privacy e sui cookie.